Location: Moscow
(55.7500°N, 37.5830°E)
Time: 07:47:17
(UTC+03:00)

A-11 Canister half - Pass Details

Date: 04 December 2021
Orbit: 1524 x 1684 km, 47.3° (Epoch: 17 January)

Event Time Altitude Azimuth Distance (km) Brightness Sun altitude
Exits shadow 04:23:44 51° 191° (SSW) 2,016 9.3 -34.4°
Maximum altitude 04:24:42 53° 174° (S) 1,983 9.4 -34.3°
Drops below altitude 10° 04:34:10 10° 101° (ESE) 3,861 11.8 -33.0°
Sets 04:37:20 0° 97° (E) 4,826 12.6 -32.6°
